Find Starlink 31512

NORAD ID: 59500 Int'l Des: 2024-071 Owner: SPXS Country: US Constellation: starlink operational
LEOCIRCULAR

現在のビュー

3D地球を読み込み中...

About Starlink 31512

Starlink 31512 (NORAD 59500) is a starlink constellation satellite (v2 mini) launched Apr 13, 2024 by SPXS of US. It operates in LEO, CIRCULAR orbit with a mass of 730.00 kg.

次回通過

Passes for default location (London). Set your location on the main map for personalized predictions.

高度履歴

Loading altitude history...

軌道要素

1 59500U 24071S 26264.07378338 .00001248 00000-0 54854-4 0 9997
2 59500 43.0009 276.0834 0000911 284.9452 75.1299 15.27578649138540
Epoch: Sep 21, 2026 • Age: 9 hours

現在のステータス

高度 488.0 km
遠地点 / 近地点 N/A
速度 7.62 km/s
衛星直下点 -23.02°S, 81.1°E
打ち上げ日 Apr 13, 2024
運用期間 2.4 years
タイプ internet

技術仕様

分類 Payload
質量 730.00 kg
乾燥質量 700.00 kg
長さ 0.30 m
スパン 29.00 m
形状 ? Box + pan
製造者 SPXS
バスタイプ Starlink V2M
フェーズステータス In Orbit
所有者/国 SPXS/US

Most Searched